Total_Precipitation_Accumulation
0.00 0.00 0.00 0.00 0.00 0.00 0.00 0.00 0.00 0.00 0.00 0.00 0.00 0.00 0.00 0.00 0.00 0.00 0.00 0.01 0.01 0.00
0.00 0.00 0.00 0.00 0.00 0.00 0.00 0.00 0.00 0.00 0.00 0.00 0.00 0.00 0.00 0.00 0.00 0.00 0.00 0.00 0.01 0.00
0.00 0.00 0.00 0.00 0.00 0.00 0.00 0.00 0.00 0.00 0.00 0.00 0.00 0.00 0.00 0.00 0.00 0.00 0.00 0.00 0.00 0.00
0.00 0.00 0.00 0.00 0.00 0.00 0.00 0.00 0.00 0.00 0.00 0.00 0.00 0.00 0.00 0.00 0.00 0.00 0.00 0.00 0.00 0.00
0.00 0.00 0.00 0.01 0.01 0.00 0.00 0.00 0.00 0.00 0.00 0.00 0.00 0.00 0.00 0.00 0.00 0.00 0.00 0.00 0.00 0.00
0.00 0.00 0.00 0.01 0.02 0.01 0.00 0.00 0.00 0.00 0.00 0.00 0.00 0.00 0.00 0.00 0.00 0.00 0.00 0.00 0.00 0.00
0.00 0.00 0.03 0.09 0.06 0.01 0.01 0.01 0.02 0.02 0.01 0.00 0.00 0.00 0.00 0.00 0.00 0.00 0.00 0.00 0.00 0.02
0.00 0.04 0.17 0.27 0.34 0.23 0.16 0.10 0.04 0.02 0.00 0.00 0.00 0.00 0.00 0.00 0.00 0.00 0.00 0.00 0.02 0.01
0.00 0.04 0.14 0.37 0.73 0.41 0.23 0.16 0.15 0.09 0.03 0.00 0.00 0.00 0.00 0.00 0.00 0.00 0.00 0.02 0.06 0.04
0.00 0.07 0.13 0.15 0.22 0.26 0.33 0.31 0.13 0.04 0.02 0.00 0.01 0.01 0.00 0.00 0.00 0.00 0.03 0.06 0.07 0.06
0.00 0.04 0.10 0.12 0.13 0.12 0.10 0.05 0.04 0.04 0.03 0.01 0.02 0.01 0.01 0.03 0.01 0.04 0.03 0.06 0.08 0.08
0.00 0.01 0.05 0.06 0.05 0.05 0.01 0.00 0.01 0.01 0.01 0.02 0.03 0.03 0.06 0.09 0.02 0.02 0.05 0.06 0.06 0.06
0.01 0.01 0.00 0.00 0.02 0.02 0.02 0.01 0.01 0.02 0.02 0.02 0.03 0.10 0.11 0.13 0.08 0.07 0.08 0.07 0.04 0.05
0.02 0.01 0.01 0.01 0.02 0.02 0.03 0.02 0.01 0.01 0.01 0.01 0.04 0.13 0.08 0.07 0.07 0.04 0.02 0.03 0.04 0.03